RYR85KM EGGW-LEMI

Flight info

Callsign RYR85KM
Flight time N/A
Altitude 37000
Route RODNI N27 ICTAM Q63 CPT UN859 SOPIL DCT BALAN DCT LMG DCT PIMQO DCT AGN DCT ANETO N860 VLC L34 ALT
Aircraft B38M/M-SDE1FGHILORVWXY/HB1

Departure

Time N/A
Airport London Luton Airport (EGGW)

Arrival

Time 2026-05-01 14:35
Airport Region of Murcia International Airport (LEMI)
Time Latitude Longitude Altitude Speed Heading
2026-05-01 12:46 48.51770 0.63730 37210 ft 424 kts 165°
2026-05-01 12:46 48.48924 0.64893 37210 ft 424 kts 165°
2026-05-01 12:47 48.43264 0.67191 37210 ft 424 kts 165°
2026-05-01 12:47 48.37567 0.69498 37212 ft 424 kts 165°
2026-05-01 12:48 48.31870 0.71799 37212 ft 424 kts 165°
2026-05-01 12:48 48.26171 0.74093 37210 ft 424 kts 165°
2026-05-01 12:49 48.20464 0.76343 37211 ft 424 kts 166°
2026-05-01 12:49 48.14764 0.78587 37211 ft 424 kts 166°
2026-05-01 12:50 48.09056 0.80830 37212 ft 424 kts 166°
2026-05-01 12:50 48.03351 0.83067 37212 ft 424 kts 166°
2026-05-01 12:51 47.97639 0.85300 37210 ft 424 kts 166°
2026-05-01 12:52 47.89080 0.88639 37211 ft 427 kts 166°
2026-05-01 12:52 47.80465 0.91986 37212 ft 426 kts 166°
2026-05-01 12:53 47.71864 0.95315 37212 ft 426 kts 166°
2026-05-01 12:54 47.66138 0.97524 37217 ft 426 kts 166°
2026-05-01 12:54 47.57533 1.00836 37212 ft 426 kts 166°
2026-05-01 12:55 47.48922 1.04139 37213 ft 426 kts 167°
2026-05-01 12:56 47.43168 1.06207 37201 ft 424 kts 175°
2026-05-01 12:56 47.37330 1.06249 37210 ft 423 kts 181°
2026-05-01 12:57 47.32393 1.06185 37213 ft 424 kts 181°
2026-05-01 12:57 47.22595 1.05966 37208 ft 424 kts 182°
2026-05-01 12:58 47.17651 1.05851 37211 ft 424 kts 182°
2026-05-01 12:59 47.08827 1.05645 37212 ft 425 kts 182°
2026-05-01 12:59 46.99967 1.05363 37211 ft 424 kts 183°
2026-05-01 13:00 46.91109 1.04985 37211 ft 425 kts 183°
2026-05-01 13:01 46.82241 1.04613 37212 ft 425 kts 183°
2026-05-01 13:02 46.73368 1.04241 37212 ft 425 kts 183°
2026-05-01 13:07 46.08262 1.02869 37229 ft 426 kts 182°
2026-05-01 13:08 46.02343 1.02799 37231 ft 426 kts 182°
2026-05-01 13:08 45.96418 1.02729 37232 ft 426 kts 183°
2026-05-01 13:09 45.90486 1.02661 37240 ft 426 kts 183°
2026-05-01 13:09 45.84551 1.02591 37238 ft 426 kts 183°
2026-05-01 13:10 45.78644 1.03341 37248 ft 429 kts 172°
2026-05-01 13:10 45.72765 1.04837 37235 ft 430 kts 172°
2026-05-01 13:11 45.66876 1.06349 37234 ft 429 kts 172°
2026-05-01 13:11 45.60997 1.07857 37226 ft 429 kts 172°
2026-05-01 13:12 45.55118 1.09361 37230 ft 430 kts 172°
2026-05-01 13:12 45.49231 1.10866 37229 ft 430 kts 172°
2026-05-01 13:13 45.43385 1.12356 37219 ft 429 kts 172°
2026-05-01 13:13 45.37507 1.13851 37223 ft 429 kts 172°
2026-05-01 13:14 45.31617 1.15346 37221 ft 429 kts 172°
2026-05-01 13:14 45.25739 1.16835 37222 ft 429 kts 172°
2026-05-01 13:15 45.19857 1.18323 37219 ft 429 kts 172°
2026-05-01 13:15 45.13985 1.18648 37218 ft 420 kts 192°
2026-05-01 13:16 45.08176 1.17279 37214 ft 424 kts 191°
2026-05-01 13:16 45.02368 1.15829 37212 ft 423 kts 192°
2026-05-01 13:17 44.90811 1.12876 37220 ft 424 kts 192°
2026-05-01 13:18 44.82114 1.10659 37216 ft 423 kts 192°
2026-05-01 13:18 44.76311 1.09184 37210 ft 424 kts 192°
2026-05-01 13:19 44.70504 1.07710 37205 ft 424 kts 192°
2026-05-01 13:20 44.61806 1.05508 37203 ft 423 kts 192°
2026-05-01 13:20 44.56008 1.04043 37201 ft 424 kts 191°
2026-05-01 13:21 44.47291 1.01848 37203 ft 424 kts 191°
2026-05-01 13:21 44.41490 1.00390 37202 ft 424 kts 191°
2026-05-01 13:22 44.35682 0.98934 37199 ft 423 kts 191°
2026-05-01 13:22 44.29881 0.97482 37198 ft 423 kts 191°
2026-05-01 13:23 44.24120 0.96044 37196 ft 423 kts 191°
2026-05-01 13:23 44.18310 0.94596 37194 ft 424 kts 191°
2026-05-01 13:24 44.12499 0.93151 37193 ft 424 kts 191°
2026-05-01 13:25 44.03791 0.90990 37194 ft 424 kts 191°
2026-05-01 13:25 43.97991 0.89554 37192 ft 424 kts 191°
2026-05-01 13:26 43.92186 0.88120 37182 ft 423 kts 191°
2026-05-01 13:26 43.86396 0.86613 37194 ft 423 kts 192°
2026-05-01 13:27 43.80618 0.85061 37197 ft 423 kts 192°
2026-05-01 13:27 43.71933 0.82741 37202 ft 423 kts 192°
2026-05-01 13:28 43.63265 0.80434 37203 ft 423 kts 192°
2026-05-01 13:29 43.51673 0.77358 37200 ft 423 kts 192°
2026-05-01 13:31 43.34364 0.72789 37199 ft 423 kts 192°
2026-05-01 13:32 43.19911 0.68993 37194 ft 423 kts 192°
2026-05-01 13:33 43.05457 0.65216 37192 ft 423 kts 192°
2026-05-01 13:34 42.93888 0.62205 37177 ft 423 kts 192°
2026-05-01 13:35 42.85211 0.59955 37195 ft 423 kts 192°
2026-05-01 13:36 42.76534 0.57710 37189 ft 423 kts 192°
2026-05-01 13:36 42.67854 0.55472 37199 ft 424 kts 192°
2026-05-01 13:37 42.63038 0.54233 37198 ft 424 kts 192°
2026-05-01 13:37 42.56313 0.52505 37185 ft 423 kts 192°
2026-05-01 13:38 42.47631 0.50280 37190 ft 423 kts 192°
2026-05-01 13:39 42.41843 0.48799 37193 ft 423 kts 192°
2026-05-01 13:39 42.36049 0.47321 37190 ft 424 kts 192°
2026-05-01 13:40 42.30257 0.45844 37199 ft 423 kts 192°
2026-05-01 13:40 42.24461 0.44369 37202 ft 424 kts 192°
2026-05-01 13:41 42.18667 0.42896 37202 ft 424 kts 192°
2026-05-01 13:41 42.12867 0.41426 37195 ft 423 kts 192°
2026-05-01 13:42 42.07075 0.39960 37194 ft 423 kts 192°
2026-05-01 13:42 42.01281 0.38496 37196 ft 424 kts 192°
2026-05-01 13:43 41.95491 0.37037 37196 ft 423 kts 192°
2026-05-01 13:43 41.89701 0.35581 37198 ft 423 kts 192°
2026-05-01 13:44 41.83907 0.34126 37185 ft 423 kts 192°
2026-05-01 13:44 41.79092 0.32919 37185 ft 423 kts 192°
2026-05-01 13:45 41.73304 0.31470 37186 ft 423 kts 192°
2026-05-01 13:45 41.66570 0.29789 37177 ft 424 kts 192°
2026-05-01 13:46 41.60780 0.28346 37194 ft 423 kts 192°
2026-05-01 13:46 41.55921 0.27136 37182 ft 423 kts 192°
2026-05-01 13:47 41.50130 0.25697 37195 ft 423 kts 192°
2026-05-01 13:47 41.44341 0.24262 37194 ft 423 kts 192°
2026-05-01 13:48 41.38592 0.22838 37200 ft 423 kts 192°
2026-05-01 13:48 41.32797 0.21407 37202 ft 423 kts 192°
2026-05-01 13:49 41.27012 0.19980 37202 ft 422 kts 192°
2026-05-01 13:49 41.21230 0.18557 37211 ft 423 kts 192°
2026-05-01 13:50 41.15452 0.17137 37210 ft 422 kts 192°
2026-05-01 13:50 41.09767 0.15207 37208 ft 421 kts 198°
2026-05-01 13:51 41.04164 0.12969 37204 ft 421 kts 198°
2026-05-01 13:51 40.98598 0.10727 37201 ft 421 kts 198°
2026-05-01 13:52 40.92992 0.08471 37201 ft 421 kts 198°
2026-05-01 13:52 40.87393 0.06222 37208 ft 420 kts 198°
2026-05-01 13:53 40.81801 0.03980 37199 ft 420 kts 198°
2026-05-01 13:53 40.73411 0.00624 37208 ft 420 kts 198°
2026-05-01 13:54 40.67812 -0.01612 37204 ft 421 kts 199°
2026-05-01 13:54 40.62155 -0.03865 37205 ft 428 kts 199°
2026-05-01 13:55 40.56447 -0.06135 37210 ft 428 kts 199°
2026-05-01 13:55 40.50738 -0.08403 37213 ft 428 kts 199°
2026-05-01 13:56 40.45030 -0.10665 37208 ft 428 kts 199°
2026-05-01 13:56 40.39321 -0.12924 37211 ft 429 kts 199°
2026-05-01 13:57 40.33605 -0.15182 37221 ft 429 kts 199°
2026-05-01 13:57 40.27883 -0.17439 37220 ft 429 kts 199°
2026-05-01 13:58 40.22205 -0.19673 37221 ft 429 kts 199°
2026-05-01 13:58 40.16490 -0.21918 37225 ft 429 kts 199°
2026-05-01 13:59 40.10766 -0.24163 37220 ft 429 kts 199°
2026-05-01 13:59 40.05045 -0.26403 37219 ft 429 kts 199°
2026-05-01 14:00 39.99317 -0.28641 37221 ft 430 kts 199°
2026-05-01 14:00 39.93641 -0.30853 37009 ft 416 kts 200°
2026-05-01 14:01 39.90887 -0.31926 36579 ft 412 kts 200°
2026-05-01 14:01 39.88143 -0.32993 36013 ft 412 kts 200°
2026-05-01 14:01 39.85392 -0.34064 35435 ft 412 kts 200°
2026-05-01 14:01 39.82650 -0.35130 34973 ft 409 kts 200°
2026-05-01 14:02 39.79938 -0.36184 34534 ft 405 kts 200°
2026-05-01 14:02 39.77245 -0.37229 34059 ft 403 kts 199°
2026-05-01 14:02 39.74569 -0.38266 33581 ft 400 kts 199°
2026-05-01 14:02 39.71908 -0.39297 33106 ft 398 kts 199°
2026-05-01 14:03 39.69258 -0.40323 32639 ft 396 kts 199°
2026-05-01 14:03 39.66618 -0.41343 32169 ft 394 kts 199°
2026-05-01 14:03 39.64031 -0.42344 31706 ft 393 kts 199°
2026-05-01 14:03 39.61415 -0.43354 31245 ft 390 kts 199°
2026-05-01 14:04 39.58783 -0.44370 30786 ft 388 kts 199°
2026-05-01 14:04 39.56243 -0.45349 30350 ft 386 kts 199°
2026-05-01 14:04 39.53683 -0.46335 29910 ft 383 kts 199°
2026-05-01 14:04 39.51129 -0.47318 29469 ft 380 kts 199°
2026-05-01 14:05 39.48584 -0.48231 28995 ft 380 kts 192°
2026-05-01 14:05 39.45938 -0.48480 28515 ft 381 kts 185°
2026-05-01 14:05 39.43313 -0.48672 28135 ft 376 kts 186°
2026-05-01 14:05 39.40705 -0.48871 27742 ft 373 kts 186°
2026-05-01 14:06 39.38122 -0.49062 27338 ft 371 kts 185°
2026-05-01 14:06 39.35550 -0.49250 26937 ft 368 kts 185°
2026-05-01 14:06 39.32994 -0.49435 26542 ft 366 kts 185°
2026-05-01 14:06 39.30463 -0.49619 26153 ft 363 kts 185°
2026-05-01 14:07 39.27948 -0.49801 25771 ft 360 kts 185°
2026-05-01 14:07 39.25456 -0.49981 25395 ft 358 kts 185°
2026-05-01 14:07 39.22977 -0.50160 25019 ft 355 kts 185°
2026-05-01 14:08 39.18073 -0.50514 24277 ft 350 kts 185°
2026-05-01 14:08 39.15650 -0.50689 23914 ft 348 kts 185°
2026-05-01 14:08 39.13244 -0.50862 23554 ft 346 kts 185°
2026-05-01 14:08 39.10852 -0.51034 23192 ft 343 kts 185°
2026-05-01 14:09 39.08472 -0.51206 22838 ft 341 kts 185°
2026-05-01 14:09 39.06111 -0.51376 22478 ft 339 kts 185°
2026-05-01 14:09 39.03795 -0.51542 22126 ft 337 kts 185°
2026-05-01 14:09 39.01465 -0.51709 21773 ft 334 kts 185°
2026-05-01 14:10 38.99150 -0.51876 21427 ft 332 kts 185°
2026-05-01 14:10 38.96848 -0.52040 21081 ft 329 kts 185°
2026-05-01 14:10 38.94573 -0.52204 20742 ft 327 kts 185°
2026-05-01 14:10 38.92312 -0.52365 20405 ft 324 kts 185°
2026-05-01 14:11 38.90067 -0.52526 20071 ft 321 kts 185°
2026-05-01 14:11 38.85642 -0.52842 19411 ft 317 kts 185°
2026-05-01 14:11 38.83452 -0.52998 19083 ft 314 kts 185°
2026-05-01 14:12 38.81277 -0.53154 18763 ft 311 kts 185°
2026-05-01 14:12 38.79121 -0.53308 18430 ft 309 kts 185°
2026-05-01 14:12 38.76979 -0.53461 18106 ft 307 kts 185°
2026-05-01 14:12 38.74853 -0.53612 17790 ft 305 kts 185°
2026-05-01 14:13 38.72743 -0.53763 17473 ft 303 kts 185°
2026-05-01 14:13 38.71355 -0.53862 17261 ft 301 kts 185°
2026-05-01 14:13 38.68569 -0.54060 16843 ft 298 kts 185°
2026-05-01 14:13 38.66511 -0.54206 16531 ft 295 kts 185°
2026-05-01 14:14 38.64466 -0.54351 16223 ft 293 kts 185°
2026-05-01 14:14 38.62434 -0.54496 15916 ft 291 kts 185°
2026-05-01 14:14 38.60416 -0.54639 15612 ft 289 kts 185°
2026-05-01 14:14 38.58415 -0.54781 15325 ft 289 kts 185°
2026-05-01 14:15 38.56594 -0.54910 15024 ft 294 kts 185°
2026-05-01 14:15 38.54479 -0.55060 14700 ft 297 kts 185°
2026-05-01 14:15 38.52413 -0.55206 14390 ft 297 kts 184°
2026-05-01 14:15 38.50349 -0.55352 14075 ft 297 kts 184°
2026-05-01 14:16 38.48287 -0.55498 13764 ft 297 kts 185°
2026-05-01 14:16 38.46229 -0.55643 13448 ft 295 kts 184°
2026-05-01 14:16 38.44175 -0.55788 13134 ft 294 kts 184°
2026-05-01 14:16 38.42143 -0.55932 12822 ft 291 kts 184°
2026-05-01 14:17 38.40127 -0.56075 12511 ft 289 kts 184°
2026-05-01 14:17 38.38126 -0.56215 12208 ft 287 kts 184°
2026-05-01 14:17 38.36141 -0.56356 11905 ft 285 kts 184°
2026-05-01 14:17 38.34172 -0.56494 11603 ft 282 kts 184°
2026-05-01 14:18 38.32215 -0.56632 11304 ft 280 kts 184°
2026-05-01 14:18 38.30281 -0.56768 11007 ft 278 kts 184°
2026-05-01 14:18 38.28363 -0.56979 10689 ft 275 kts 194°
2026-05-01 14:18 38.27184 -0.57562 10457 ft 275 kts 211°
2026-05-01 14:19 38.25413 -0.59834 10111 ft 269 kts 233°
2026-05-01 14:19 38.24309 -0.61737 9839 ft 266 kts 233°
2026-05-01 14:19 38.23218 -0.63652 9552 ft 270 kts 233°
2026-05-01 14:19 38.22009 -0.65501 9225 ft 274 kts 218°
2026-05-01 14:20 38.20323 -0.66596 8914 ft 274 kts 197°
2026-05-01 14:20 38.16662 -0.68017 8362 ft 276 kts 196°
2026-05-01 14:20 38.14875 -0.68792 8046 ft 276 kts 207°
2026-05-01 14:21 38.13367 -0.70337 7719 ft 275 kts 225°
2026-05-01 14:21 38.12036 -0.72016 7437 ft 272 kts 224°
2026-05-01 14:21 38.10693 -0.73705 7148 ft 271 kts 224°
2026-05-01 14:22 38.08043 -0.77054 6542 ft 268 kts 224°
2026-05-01 14:22 38.06720 -0.78722 6227 ft 267 kts 224°
2026-05-01 14:22 38.05406 -0.80382 5936 ft 266 kts 224°
2026-05-01 14:22 38.04109 -0.82019 5780 ft 259 kts 224°
2026-05-01 14:23 38.02853 -0.83607 5645 ft 250 kts 224°
2026-05-01 14:23 38.01642 -0.85131 5511 ft 241 kts 224°
2026-05-01 14:23 38.00475 -0.86604 5382 ft 233 kts 224°
2026-05-01 14:23 37.99347 -0.88025 5256 ft 224 kts 224°
2026-05-01 14:24 37.98258 -0.89398 5084 ft 219 kts 224°
2026-05-01 14:24 37.97183 -0.90750 4880 ft 215 kts 224°
2026-05-01 14:24 37.96132 -0.92073 4700 ft 210 kts 224°
2026-05-01 14:24 37.95109 -0.93374 4475 ft 207 kts 224°
2026-05-01 14:25 37.94096 -0.94674 4203 ft 207 kts 224°
2026-05-01 14:25 37.93092 -0.95968 3965 ft 203 kts 225°
2026-05-01 14:25 37.92115 -0.97232 3680 ft 200 kts 224°
2026-05-01 14:25 37.91148 -0.98484 3396 ft 198 kts 224°
2026-05-01 14:26 37.90189 -0.99720 3121 ft 195 kts 224°
2026-05-01 14:26 37.88325 -1.02132 2616 ft 188 kts 224°
2026-05-01 14:26 37.87420 -1.03303 2367 ft 184 kts 224°
2026-05-01 14:27 37.86532 -1.04452 2127 ft 181 kts 224°
2026-05-01 14:27 37.85660 -1.05577 1894 ft 172 kts 224°
2026-05-01 14:27 37.84955 -1.06486 1747 ft 154 kts 223°
2026-05-01 14:33 37.84776 -1.06717 1700 ft 150 kts 224°
2026-05-01 14:34 37.84072 -1.07631 1479 ft 143 kts 224°
2026-05-01 14:34 37.83374 -1.08518 1266 ft 140 kts 223°
2026-05-01 14:34 37.82698 -1.09387 1069 ft 139 kts 224°
2026-05-01 14:34 37.82033 -1.10262 902 ft 137 kts 224°
2026-05-01 14:35 37.81372 -1.11125 718 ft 137 kts 223°
2026-05-01 14:35 37.80735 -1.11937 650 ft 117 kts 224°
2026-05-01 14:35 37.80317 -1.12476 651 ft 53 kts 225°
2026-05-01 14:35 37.80081 -1.12780 649 ft 31 kts 226°
2026-05-01 14:36 37.79958 -1.12972 653 ft 26 kts 237°
2026-05-01 14:36 37.79903 -1.13151 655 ft 19 kts 252°
2026-05-01 14:36 37.79940 -1.13246 654 ft 13 kts 356°
2026-05-01 14:36 37.80016 -1.13173 653 ft 15 kts 46°
2026-05-01 14:37 37.80048 -1.13129 652 ft 1 kts 46°
2026-05-01 14:37 37.80062 -1.13111 652 ft 4 kts 44°
2026-05-01 14:37 37.80095 -1.13084 656 ft 7 kts 11°
2026-05-01 14:37 37.80143 -1.13112 653 ft 9 kts 315°
2026-05-01 14:38 37.80196 -1.13167 656 ft 10 kts 349°
2026-05-01 14:38 37.80248 -1.13124 652 ft 10 kts 44°
2026-05-01 14:38 37.80304 -1.13053 652 ft 13 kts 45°
2026-05-01 14:38 37.80368 -1.12970 655 ft 11 kts 45°
2026-05-01 14:39 37.80413 -1.12914 654 ft 9 kts 43°
2026-05-01 14:39 37.80443 -1.12915 654 ft 5 kts 327°
2026-05-01 14:39 37.80473 -1.12951 652 ft 4 kts 315°
2026-05-01 14:39 37.80481 -1.12960 653 ft 1 kts 314°
2026-05-01 14:40 37.80485 -1.12966 652 ft 0 kts 313°